Temp
-7 -7 -7 -7 -7 -7 -7 -7 -7 -7 -7 -6 -6 -6 -6 -6 -6 -6 -6 -6 -6 -6 -6 -6 -6 -7 -7 -8 -8 -7 -6 -6 -5 -5 -5 -7 -7 -7 -6 -6 -7 -8 -9 -10 -9
-7 -7 -7 -7 -7 -7 -7 -7 -7 -7 -7 -6 -6 -6 -6 -6 -6 -6 -6 -6 -6 -6 -6 -7 -7 -7 -7 -8 -7 -7 -7 -7 -7 -6 -6 -7 -8 -8 -7 -6 -7 -8 -9 -10 -8
-7 -7 -7 -7 -7 -7 -7 -8 -7 -7 -7 -6 -6 -6 -6 -6 -6 -7 -6 -6 -6 -7 -7 -7 -7 -7 -8 -8 -8 -8 -7 -8 -8 -8 -7 -7 -8 -9 -7 -7 -8 -8 -9 -9 -9
-7 -7 -7 -7 -7 -7 -7 -7 -7 -7 -6 -6 -6 -6 -6 -7 -7 -7 -7 -7 -7 -7 -7 -8 -8 -8 -8 -10 -11 -10 -10 -9 -9 -8 -8 -7 -8 -8 -8 -8 -8 -8 -9 -9 -8
-7 -7 -7 -7 -7 -7 -7 -7 -7 -7 -7 -7 -7 -7 -7 -7 -7 -7 -7 -7 -7 -8 -9 -9 -9 -10 -12 -14 -14 -14 -13 -13 -12 -12 -10 -9 -8 -7 -8 -9 -10 -9 -9 -9 -8
-7 -7 -7 -7 -7 -7 -7 -7 -7 -7 -7 -7 -7 -7 -7 -8 -8 -8 -8 -8 -9 -9 -9 -11 -13 -15 -16 -17 -17 -17 -16 -15 -15 -14 -14 -13 -12 -9 -8 -9 -11 -10 -10 -9 -9
-7 -7 -7 -7 -7 -7 -7 -7 -7 -7 -7 -7 -7 -7 -8 -9 -9 -9 -10 -10 -10 -11 -13 -15 -16 -16 -17 -17 -17 -17 -17 -17 -16 -16 -16 -15 -13 -12 -10 -12 -11 -11 -11 -11 -10
-7 -7 -7 -7 -7 -7 -7 -7 -7 -7 -7 -8 -8 -9 -10 -10 -10 -10 -11 -11 -12 -15 -16 -16 -16 -16 -16 -16 -17 -17 -17 -16 -17 -18 -17 -17 -15 -14 -13 -12 -12 -11 -11 -11 -10
-8 -8 -7 -7 -7 -7 -7 -7 -7 -8 -8 -9 -10 -10 -10 -11 -11 -11 -11 -12 -15 -16 -16 -16 -16 -16 -16 -16 -16 -17 -16 -16 -16 -17 -17 -18 -17 -15 -14 -13 -12 -11 -11 -12 -12
-8 -8 -8 -8 -7 -7 -7 -8 -9 -9 -11 -11 -11 -11 -11 -11 -11 -12 -13 -15 -15 -16 -16 -16 -16 -16 -16 -16 -16 -17 -17 -17 -17 -18 -18 -17 -16 -16 -16 -15 -13 -13 -11 -12 -12
-8 -8 -7 -7 -7 -7 -8 -9 -10 -11 -12 -12 -12 -12 -12 -13 -12 -13 -15 -16 -16 -16 -16 -16 -16 -16 -17 -16 -17 -17 -17 -17 -18 -18 -18 -17 -18 -16 -16 -16 -15 -14 -12 -12 -13
-8 -8 -8 -7 -8 -8 -9 -10 -11 -12 -12 -12 -12 -12 -13 -12 -13 -15 -16 -16 -16 -16 -16 -16 -16 -16 -16 -16 -16 -17 -17 -17 -18 -18 -19 -18 -18 -17 -17 -17 -17 -15 -14 -12 -13
-8 -8 -8 -8 -8 -9 -10 -11 -12 -13 -13 -12 -13 -13 -13 -13 -15 -17 -17 -17 -16 -16 -16 -16 -16 -16 -16 -16 -16 -16 -17 -17 -17 -18 -19 -18 -17 -17 -17 -18 -18 -17 -15 -14 -13
-8 -8 -8 -9 -9 -11 -11 -12 -13 -13 -13 -13 -13 -13 -13 -13 -14 -17 -17 -18 -17 -16 -16 -16 -16 -16 -16 -16 -17 -16 -17 -17 -17 -17 -17 -19 -17 -17 -17 -17 -18 -18 -17 -14 -13
-9 -9 -9 -10 -11 -11 -13 -14 -14 -13 -14 -14 -14 -14 -14 -15 -16 -17 -18 -18 -18 -17 -17 -17 -16 -16 -16 -17 -17 -16 -17 -17 -17 -17 -17 -17 -17 -15 -18 -18 -17 -18 -18 -16 -15
-10 -10 -10 -11 -12 -13 -14 -14 -13 -14 -14 -15 -15 -16 -16 -17 -17 -17 -18 -19 -18 -16 -16 -16 -16 -16 -16 -17 -17 -17 -17 -17 -17 -18 -17 -17 -18 -15 -17 -18 -17 -18 -18 -17 -16
-11 -11 -11 -12 -13 -14 -14 -14 -14 -14 -15 -15 -15 -16 -16 -16 -17 -17 -18 -19 -17 -16 -17 -17 -17 -17 -17 -17 -18 -18 -18 -17 -17 -17 -17 -17 -18 -15 -18 -18 -17 -17 -17 -17 -17
-11 -11 -12 -12 -13 -14 -14 -14 -14 -14 -14 -15 -15 -16 -16 -16 -17 -17 -18 -17 -17 -17 -17 -16 -17 -18 -18 -18 -18 -19 -18 -18 -18 -17 -18 -18 -16 -16 -18 -18 -18 -17 -17 -17 -17
-12 -12 -12 -13 -13 -14 -14 -14 -14 -14 -15 -15 -15 -15 -17 -18 -18 -18 -18 -17 -17 -17 -16 -16 -16 -18 -18 -18 -18 -18 -18 -18 -18 -18 -18 -17 -17 -17 -18 -18 -18 -18 -18 -17 -17
-12 -12 -12 -12 -13 -14 -14 -15 -15 -15 -15 -15 -15 -15 -15 -16 -17 -18 -17 -18 -17 -17 -17 -16 -16 -17 -18 -18 -18 -18 -18 -18 -18 -18 -18 -17 -17 -17 -18 -18 -18 -18 -18 -17 -18
-12 -12 -13 -13 -13 -13 -14 -15 -15 -15 -15 -15 -15 -16 -15 -16 -17 -17 -18 -18 -17 -17 -17 -17 -17 -17 -18 -18 -18 -18 -18 -19 -19 -19 -18 -17 -17 -18 -19 -19 -19 -18 -18 -18 -19
-13 -13 -13 -13 -13 -13 -14 -14 -15 -15 -16 -15 -16 -16 -16 -16 -17 -18 -18 -18 -17 -17 -17 -18 -17 -17 -18 -18 -18 -18 -19 -19 -19 -18 -19 -18 -17 -18 -18 -19 -19 -18 -19 -19 -19
-13 -13 -13 -13 -13 -13 -14 -15 -15 -15 -15 -15 -16 -16 -17 -17 -17 -17 -17 -17 -17 -17 -17 -17 -17 -17 -17 -17 -18 -18 -19 -18 -18 -18 -17 -18 -17 -18 -19 -19 -19 -18 -18 -18 -19
-13 -13 -13 -13 -13 -14 -14 -15 -15 -15 -15 -15 -16 -16 -16 -17 -17 -17 -17 -17 -17 -17 -17 -17 -18 -18 -18 -18 -18 -18 -19 -19 -18 -18 -18 -17 -18 -19 -19 -19 -19 -19 -19 -18 -19
-13 -13 -13 -13 -14 -14 -14 -15 -15 -15 -16 -16 -15 -16 -16 -16 -17 -17 -17 -17 -17 -17 -17 -18 -18 -18 -18 -18 -19 -19 -18 -19 -18 -18 -17 -17 -18 -19 -19 -19 -19 -19 -19 -18 -17
-13 -13 -14 -14 -14 -14 -14 -15 -15 -15 -16 -15 -15 -16 -16 -16 -16 -17 -17 -17 -17 -18 -18 -18 -17 -17 -18 -18 -18 -18 -18 -18 -18 -18 -17 -17 -18 -19 -19 -19 -19 -18 -18 -18 -17
-13 -13 -14 -14 -14 -14 -14 -15 -15 -15 -16 -16 -16 -16 -16 -16 -17 -17 -17 -17 -17 -17 -17 -17 -18 -18 -18 -18 -18 -18 -18 -18 -18 -18 -18 -18 -18 -18 -19 -18 -18 -17 -16 -17 -16
Height
5853 5851 5850 5848 5845 5843 5841 5839 5837 5835 5832 5830 5827 5824 5821 5818 5816 5814 5809 5806 5804 5801 5799 5796 5794 5793 5793 5792 5793 5792 5793 5797 5803 5806 5811 5817 5817 5818 5823 5833 5833 5838 5839 5838 5838
5852 5850 5847 5844 5841 5839 5836 5834 5832 5830 5827 5824 5821 5818 5814 5811 5808 5804 5800 5795 5791 5788 5786 5783 5780 5779 5778 5777 5776 5775 5778 5781 5789 5790 5792 5803 5803 5809 5811 5822 5826 5829 5830 5828 5827
5850 5847 5844 5840 5836 5833 5831 5829 5827 5824 5821 5817 5813 5810 5806 5802 5800 5793 5788 5783 5779 5774 5771 5767 5764 5763 5761 5759 5759 5759 5758 5763 5766 5770 5773 5782 5787 5797 5798 5807 5816 5819 5818 5821 5822
5848 5845 5842 5838 5834 5831 5828 5825 5822 5819 5815 5811 5806 5801 5796 5792 5789 5781 5775 5770 5765 5761 5755 5750 5745 5742 5742 5741 5740 5743 5743 5746 5749 5753 5755 5760 5769 5780 5784 5796 5804 5807 5807 5810 5816
5846 5843 5839 5835 5832 5828 5825 5821 5817 5813 5809 5804 5799 5793 5787 5782 5775 5769 5762 5756 5751 5744 5737 5732 5726 5722 5721 5721 5722 5724 5727 5727 5732 5737 5739 5744 5750 5762 5771 5781 5788 5794 5794 5800 5807
5843 5840 5836 5832 5828 5824 5821 5817 5812 5807 5802 5796 5790 5783 5777 5772 5766 5759 5752 5743 5737 5729 5721 5715 5711 5708 5708 5709 5708 5710 5710 5715 5716 5721 5724 5726 5734 5745 5769 5769 5775 5783 5784 5789 5795
5840 5836 5832 5828 5824 5820 5816 5811 5805 5799 5793 5787 5780 5773 5767 5762 5755 5749 5740 5731 5723 5714 5708 5703 5702 5701 5701 5701 5700 5701 5702 5703 5710 5710 5710 5711 5717 5728 5744 5752 5763 5770 5773 5778 5785
5836 5832 5828 5824 5820 5815 5810 5805 5798 5790 5784 5777 5770 5763 5756 5748 5741 5736 5730 5719 5709 5704 5701 5699 5699 5698 5696 5696 5696 5696 5695 5696 5701 5695 5699 5698 5696 5711 5720 5729 5741 5755 5763 5770 5776
5833 5829 5825 5820 5815 5810 5803 5796 5789 5781 5774 5767 5760 5753 5746 5740 5732 5722 5717 5710 5702 5699 5697 5697 5696 5695 5693 5691 5692 5690 5689 5690 5691 5691 5690 5685 5685 5697 5703 5709 5727 5736 5747 5755 5764
5829 5825 5820 5815 5809 5802 5794 5786 5778 5770 5764 5758 5751 5745 5737 5730 5725 5715 5706 5700 5697 5694 5693 5693 5692 5691 5688 5686 5685 5682 5681 5683 5683 5684 5680 5679 5680 5685 5691 5693 5707 5719 5731 5742 5751
5825 5820 5814 5808 5801 5793 5786 5778 5773 5766 5759 5752 5745 5737 5728 5719 5712 5704 5699 5696 5694 5692 5691 5688 5689 5688 5686 5682 5680 5677 5675 5674 5677 5676 5671 5673 5670 5676 5680 5680 5689 5703 5713 5725 5736
5820 5814 5808 5801 5793 5784 5776 5769 5762 5757 5751 5746 5738 5728 5721 5713 5705 5698 5694 5691 5688 5687 5686 5687 5684 5681 5679 5677 5674 5671 5668 5669 5668 5669 5665 5664 5664 5671 5671 5670 5676 5686 5697 5709 5725
5814 5808 5801 5792 5784 5776 5767 5761 5754 5748 5744 5739 5731 5723 5714 5707 5697 5691 5687 5683 5682 5682 5680 5680 5678 5675 5672 5671 5666 5666 5663 5661 5659 5661 5658 5656 5655 5659 5665 5662 5666 5668 5681 5692 5709
5808 5802 5793 5784 5777 5767 5761 5754 5746 5740 5734 5730 5722 5714 5706 5698 5692 5684 5680 5678 5677 5676 5676 5674 5672 5670 5669 5667 5662 5658 5658 5654 5652 5651 5651 5653 5643 5653 5655 5655 5656 5661 5666 5677 5692
5801 5793 5786 5776 5769 5762 5755 5747 5743 5736 5728 5721 5715 5708 5699 5693 5686 5679 5672 5671 5670 5670 5671 5670 5668 5665 5663 5660 5655 5653 5650 5647 5645 5642 5641 5642 5640 5641 5646 5646 5649 5650 5653 5659 5671
5794 5786 5778 5770 5763 5757 5751 5745 5739 5731 5722 5716 5708 5700 5693 5689 5682 5676 5672 5668 5665 5665 5664 5665 5661 5657 5656 5654 5648 5645 5642 5639 5638 5636 5632 5638 5635 5630 5636 5637 5638 5641 5644 5648 5655
5788 5780 5772 5765 5759 5753 5747 5741 5734 5727 5720 5713 5705 5696 5690 5682 5678 5673 5669 5666 5662 5661 5660 5658 5655 5651 5649 5645 5643 5639 5636 5631 5630 5629 5625 5631 5626 5626 5632 5631 5632 5633 5635 5637 5642
5784 5775 5769 5762 5755 5751 5744 5738 5730 5723 5714 5706 5698 5692 5685 5678 5673 5669 5666 5659 5657 5654 5652 5649 5652 5646 5640 5635 5631 5630 5628 5626 5620 5620 5620 5619 5615 5622 5623 5621 5623 5625 5626 5628 5632
5779 5772 5766 5760 5753 5746 5740 5732 5724 5717 5710 5703 5696 5688 5683 5677 5669 5663 5659 5654 5652 5650 5645 5640 5639 5637 5630 5626 5624 5619 5618 5617 5612 5611 5608 5608 5610 5612 5613 5613 5614 5615 5614 5617 5621
5776 5769 5762 5757 5750 5741 5733 5726 5720 5712 5705 5699 5692 5684 5675 5670 5663 5658 5654 5650 5647 5643 5638 5633 5630 5630 5627 5621 5618 5612 5610 5608 5606 5603 5600 5599 5600 5602 5605 5605 5604 5605 5605 5604 5609
5772 5765 5760 5751 5744 5736 5729 5723 5716 5707 5701 5693 5687 5679 5671 5664 5658 5652 5645 5643 5640 5638 5633 5627 5624 5626 5620 5614 5611 5607 5602 5600 5598 5595 5592 5590 5592 5599 5597 5595 5593 5594 5594 5595 5595
5768 5762 5757 5748 5742 5733 5725 5718 5711 5703 5698 5690 5682 5674 5666 5658 5653 5646 5638 5635 5634 5630 5629 5623 5617 5615 5615 5609 5604 5600 5597 5594 5590 5588 5586 5585 5582 5588 5588 5586 5583 5581 5584 5584 5582
5763 5756 5751 5745 5738 5731 5722 5713 5705 5700 5694 5685 5677 5670 5662 5655 5646 5641 5637 5633 5629 5624 5620 5618 5614 5607 5606 5604 5598 5594 5591 5587 5583 5579 5578 5579 5576 5581 5581 5577 5574 5573 5572 5570 5571
5760 5753 5746 5740 5733 5726 5719 5712 5705 5697 5690 5681 5674 5667 5658 5654 5646 5638 5633 5629 5625 5621 5618 5612 5610 5606 5601 5597 5592 5590 5586 5582 5577 5572 5573 5570 5573 5577 5573 5569 5566 5564 5562 5560 5563
5754 5748 5741 5735 5729 5721 5713 5707 5700 5694 5687 5678 5672 5663 5656 5649 5644 5636 5630 5625 5620 5616 5613 5609 5606 5601 5597 5591 5588 5584 5580 5576 5571 5569 5564 5568 5563 5568 5564 5563 5561 5559 5556 5558 5563
5748 5743 5738 5730 5723 5717 5709 5702 5695 5689 5681 5675 5667 5661 5652 5645 5637 5631 5626 5620 5616 5613 5608 5604 5599 5595 5592 5587 5582 5579 5572 5570 5566 5564 5562 5560 5559 5558 5560 5561 5556 5554 5552 5556 5567
5742 5737 5732 5725 5718 5713 5706 5698 5691 5683 5678 5670 5664 5657 5650 5642 5634 5627 5621 5617 5611 5609 5604 5600 5593 5588 5586 5582 5578 5576 5572 5567 5564 5561 5557 5555 5552 5552 5557 5558 5553 5552 5559 5562 5569
Wind_Speed
15 14 15 16 17 18 19 19 19 21 23 24 24 25 26 30 30 30 32 35 35 36 39 42 43 44 44 44 44 46 51 50 47 49 49 46 47 48 50 42 55 51 46 37 39
19 19 20 22 20 20 21 21 21 22 24 25 26 27 31 34 35 35 37 39 42 45 46 48 50 51 52 53 55 57 57 55 52 54 56 51 54 51 55 49 51 58 53 44 52
23 22 25 27 23 21 21 21 21 24 26 28 30 32 35 37 38 41 42 45 47 49 54 55 56 56 57 59 59 60 65 61 60 61 62 60 59 56 60 54 50 65 58 57 54
23 24 26 28 26 24 22 22 24 27 29 32 36 39 40 42 45 47 48 50 52 56 59 60 61 62 60 58 58 60 63 66 67 67 67 67 66 63 64 57 55 62 68 67 60
22 25 27 28 27 27 27 28 30 31 33 36 39 43 46 48 50 50 52 54 58 60 61 59 58 56 49 45 44 49 55 62 64 65 69 71 72 70 69 62 58 62 68 73 71
24 26 28 28 29 30 32 35 35 35 37 39 43 46 49 50 50 51 54 58 59 58 54 48 39 35 31 28 31 34 40 45 51 56 61 63 67 72 65 65 61 64 65 73 76
26 29 28 29 33 36 35 42 39 39 40 43 46 48 49 50 52 51 54 55 54 46 35 24 19 16 18 21 25 27 31 35 36 41 48 53 64 67 66 62 64 68 69 63 73
28 27 28 29 34 39 44 45 44 42 42 44 46 48 48 50 50 52 48 49 40 24 13 11 10 11 12 14 17 20 22 21 23 33 34 37 54 59 60 65 66 75 68 67 73
26 27 30 33 40 46 46 48 43 41 42 42 44 44 45 45 45 47 47 37 16 7 6 10 13 13 16 19 20 25 27 26 26 29 31 35 39 45 57 62 66 77 76 72 71
30 31 34 38 45 48 49 46 43 43 41 39 41 42 43 44 39 39 36 20 10 9 12 16 15 12 20 24 24 26 28 25 28 30 37 40 39 37 41 50 63 69 85 76 73
34 38 43 46 48 50 48 42 42 39 37 37 39 39 40 37 38 38 25 16 14 14 13 18 14 15 19 24 23 23 23 23 21 23 39 41 39 42 39 45 50 63 76 84 75
36 42 46 50 49 49 44 43 43 39 37 37 39 37 35 35 36 30 23 18 18 15 18 12 15 21 22 19 20 21 26 19 22 25 34 35 36 34 32 39 41 54 70 85 82
40 44 47 48 49 46 43 42 40 39 38 38 38 36 33 32 32 29 28 23 21 17 14 14 19 22 22 21 25 20 23 25 25 25 37 38 37 30 25 33 36 39 61 77 88
42 44 46 47 47 42 41 40 38 38 43 40 36 34 32 34 37 38 30 21 15 16 16 17 20 22 21 21 25 27 22 27 30 27 32 37 44 33 31 31 32 34 36 68 84
43 45 45 44 42 42 40 39 38 40 41 40 37 35 33 36 38 35 33 18 14 15 14 14 20 23 22 25 26 24 25 30 29 33 32 35 42 24 30 35 32 31 34 42 78
43 43 43 44 42 40 39 37 39 38 35 36 36 35 34 32 32 29 18 19 22 14 17 17 21 27 27 25 26 25 27 27 24 28 36 25 29 6 13 17 29 36 36 38 43
41 41 41 41 40 39 38 39 37 36 34 35 32 32 32 33 31 24 13 20 24 17 16 19 24 29 30 29 23 26 25 31 30 30 30 22 32 24 12 17 23 29 30 38 44
38 39 39 39 38 38 37 36 34 36 34 33 36 32 31 32 31 24 19 21 20 21 20 24 18 24 25 27 26 23 26 29 41 37 31 31 34 23 19 26 24 26 34 31 34
35 36 38 38 38 39 40 38 37 38 35 33 35 35 28 23 29 26 26 25 20 21 25 28 25 23 23 23 25 28 26 26 31 35 38 38 32 28 27 27 28 28 30 33 39
32 34 36 37 39 39 39 37 38 37 33 33 34 35 37 29 27 28 27 24 24 22 26 28 26 16 15 20 19 25 24 26 32 38 42 41 35 28 27 26 27 28 26 28 33
30 33 34 37 39 42 38 38 40 38 33 33 35 37 38 36 28 30 32 21 21 22 26 28 26 15 17 25 22 23 25 23 25 31 40 40 38 33 31 28 32 27 29 28 31
30 32 35 39 39 42 40 43 43 39 33 34 35 38 38 36 30 32 21 20 22 23 22 24 27 23 21 22 25 21 18 21 25 28 32 33 32 28 29 32 28 32 22 33 37
30 33 36 38 39 40 41 43 41 38 35 35 36 37 37 32 34 28 20 20 22 25 27 24 25 31 25 23 23 16 16 21 27 33 30 33 36 31 28 28 32 31 30 31 39
31 31 35 36 40 41 41 41 39 37 37 35 36 36 38 27 28 30 24 24 24 23 23 25 23 23 25 24 23 19 19 23 25 25 24 31 30 26 29 26 30 22 21 25 39
29 33 35 36 38 41 42 42 42 38 35 33 30 34 35 34 27 26 23 22 25 28 21 20 20 25 22 22 19 21 23 23 29 23 28 22 31 21 24 27 28 26 17 24 44
30 33 34 36 37 39 42 42 43 40 36 27 29 33 38 37 35 29 21 25 20 15 18 21 25 23 12 19 23 25 14 13 16 19 21 18 22 23 24 19 23 15 13 26 46
32 35 34 35 37 38 42 44 43 38 30 32 33 38 38 40 33 30 21 19 17 19 20 24 28 29 12 18 19 17 15 22 17 16 17 15 18 23 21 15 21 16 24 34 59
Wind_Direction
18 6 352 335 319 312 310 310 311 310 313 312 312 312 311 313 312 309 304 301 301 298 296 294 289 286 283 280 273 267 262 259 254 250 243 234 233 235 235 216 214 207 214 229 234
10 360 351 344 331 314 308 307 308 310 314 313 311 311 310 311 314 308 307 307 303 300 296 294 290 285 283 279 275 271 268 263 255 249 246 235 232 230 233 224 214 205 212 220 229
4 0 355 352 343 334 321 315 313 313 314 313 312 311 309 309 311 311 309 306 302 299 298 295 292 288 282 276 269 265 263 258 253 246 243 236 231 228 231 228 212 208 211 218 225
359 357 353 353 351 344 336 328 320 317 315 314 313 312 312 313 315 313 309 306 302 299 298 299 294 288 281 273 263 260 260 259 257 249 245 238 234 225 228 226 219 214 212 220 223
354 353 351 350 350 346 337 328 323 320 318 315 314 316 316 315 314 311 308 305 302 302 304 298 291 286 281 274 267 259 252 251 249 247 244 241 238 229 224 224 222 215 208 216 221
351 350 351 353 355 356 355 350 340 330 324 319 318 317 314 313 310 309 307 306 309 308 301 293 287 283 280 276 267 257 256 252 251 248 247 247 242 237 226 224 219 215 204 210 219
351 353 356 0 358 357 353 349 342 334 329 322 317 313 312 312 310 311 314 315 317 305 296 293 297 292 281 274 272 272 264 258 256 252 249 251 246 237 226 226 213 207 205 205 213
355 359 359 358 356 349 346 343 338 329 323 316 312 312 314 314 316 317 320 322 307 292 288 293 294 291 295 288 277 273 271 260 239 244 241 244 244 237 233 226 213 207 204 199 210
355 355 356 351 347 342 340 338 333 324 318 314 315 317 318 321 323 323 326 315 291 268 280 281 286 297 290 285 283 277 271 262 247 249 241 243 247 237 236 231 221 208 207 205 204
354 352 348 348 342 341 340 334 329 324 321 319 322 321 322 322 325 330 326 299 267 278 286 286 288 295 289 286 287 280 281 270 259 252 248 246 254 247 237 236 225 216 208 210 206
350 350 346 343 341 341 338 332 328 324 321 323 323 326 322 325 330 333 315 276 267 275 282 287 293 283 278 284 290 283 274 270 262 248 244 253 250 254 245 244 230 220 213 211 208
351 349 345 340 339 339 335 333 330 330 328 328 330 324 322 325 328 328 310 277 270 273 267 268 301 289 294 295 297 299 290 285 257 257 246 244 251 256 257 261 249 228 213 213 212
348 346 342 340 341 336 338 333 334 335 331 335 332 326 327 330 330 323 306 283 273 273 283 298 295 306 304 303 296 290 286 284 279 241 248 256 255 253 255 251 255 247 220 210 209
345 345 342 340 338 339 335 337 341 334 340 337 335 332 330 336 336 327 316 301 260 273 279 305 299 300 300 305 287 289 287 277 277 272 253 249 262 256 256 262 254 252 245 211 209
342 344 342 339 339 339 344 346 335 338 336 337 339 335 332 333 336 334 319 324 317 282 282 299 292 293 303 294 284 294 280 278 275 269 266 260 267 279 260 257 255 244 243 231 206
340 341 341 341 340 347 344 340 334 344 341 341 340 332 332 326 328 337 323 315 316 285 298 298 295 297 298 289 286 281 278 278 282 276 268 274 270 331 281 259 236 243 246 236 222
338 339 342 344 344 341 335 339 346 342 340 341 340 335 335 326 331 335 324 295 296 289 288 291 294 292 294 294 278 276 277 282 279 273 283 276 261 263 293 255 241 246 248 240 224
340 341 345 346 345 339 337 340 346 346 346 345 343 339 334 324 328 330 310 297 301 306 304 300 288 295 296 297 289 272 265 260 274 273 280 262 261 264 264 258 260 257 248 243 236
342 345 349 348 345 342 339 344 344 344 346 345 340 337 333 316 318 324 315 305 305 297 303 309 317 324 309 301 295 289 269 261 258 259 266 268 265 269 256 261 255 263 264 257 238
343 345 349 350 349 349 350 345 343 342 345 338 338 339 334 329 320 319 318 294 290 299 307 314 320 323 297 295 304 299 290 273 262 264 265 259 266 268 261 262 262 259 262 239 242
340 340 345 347 349 350 349 348 346 341 340 337 338 341 336 331 323 320 316 303 303 306 305 312 316 327 312 304 305 297 286 276 275 265 265 265 262 264 271 276 269 268 258 249 248
337 336 345 347 347 349 348 346 349 343 337 336 342 342 336 334 331 330 317 306 311 307 314 315 321 323 310 294 298 301 294 279 266 272 263 263 262 264 276 286 280 271 258 250 234
333 339 343 344 349 347 347 348 350 345 339 340 344 339 337 336 333 336 322 313 309 314 317 313 321 323 327 321 318 310 301 288 279 273 268 256 263 277 283 281 284 282 281 252 234
331 334 336 342 346 348 347 347 346 344 342 342 341 339 342 338 333 332 323 317 314 310 307 303 315 325 330 326 313 308 297 297 295 281 278 265 269 268 270 286 280 288 277 244 213
331 333 334 337 341 343 343 343 344 347 338 337 343 342 343 342 338 334 322 312 313 311 309 302 305 318 323 328 315 316 307 278 277 295 284 284 263 267 277 277 283 300 281 215 195
328 333 331 332 338 341 338 339 340 343 334 339 338 342 343 340 339 346 325 314 320 322 312 314 309 316 319 321 317 329 324 322 299 282 297 283 255 259 271 287 294 320 200 185 186
323 329 332 331 334 337 336 336 338 343 338 332 334 340 341 336 330 334 324 327 336 324 320 313 315 318 324 309 317 319 311 307 315 304 302 285 270 250 260 281 291 260 194 179 180